Weather History for KSBN - November, 2014

Change the Weather History Date:

Tuesday, November 4, 2014

  Actual Average Record
Temperature  
Mean Temperature 49 °F 46 °F  
Max Temperature 58 °F 54 °F 74 °F (1978)
Min Temperature 39 °F 37 °F 13 °F (1951)
Degree Days  
Heating Degree Days 16 19  
Month to date heating degree days 86 75  
Since 1 July heating degree days 619 616  
Cooling Degree Days 0 0  
Month to date cooling degree days 0 0  
Year to date cooling degree days 771 773  
Moisture  
Dew Point 43 °F    
Average Humidity 64    
Maximum Humidity 96    
Minimum Humidity 31    
Precipitation  
Precipitation 0.12 in 0.10 in 1.50 in (1935)
Month to date precipitation 0.12 0.42  
Year to date precipitation 36.72 32.54  
Snow  
Snow 0.00 in 0.10 in 7.20 in (1976)
Month to date snowfall 0.0 0.3  
Since 1 July snowfall 0.2 0.7  
Since 1 September snowfall 0.2 0.7  
Snow Depth 0.00 in    
Sea Level Pressure  
Sea Level Pressure 29.99 in    
Wind  
Wind Speed 14 mph (SW)    
Max Wind Speed 22 mph    
Max Gust Speed 30 mph    
Visibility 8 miles    
Events Rain    
T = Trace of Precipitation, MM = Missing Value Source: NWS Daily Summary

Daily Weather History Graph

Daily Weather History Graph

Search for Another Location

Airport or City:

Trip Planner

Search our weather history database for the weather conditions in past years. The results will help you decide how hot, cold, wet, or windy it might be!

Date:

Astronomy

Nov. 04, 2014 Rise Set
Actual Time 7:21 AM EST 5:36 PM EST
Civil Twilight 6:51 AM EST 6:05 PM EST
Nautical Twilight 6:18 AM EST 6:38 PM EST
Astronomical Twilight 5:46 AM EST 7:10 PM EST
Moon 4:24 PM EST (11/4) 4:35 AM EST (11/4)
Length of Visible Light 11h 13m
Length of Day
10h 15m
Waxing Gibbous, 94% of the Moon is Illuminated
Nov 4
Waxing Gibbous
Nov 6
Full
Nov 14
Last Quarter
Nov 22
New
Nov 29
First Quarter

Hourly Weather History & Observations

Time (EST) Temp. Windchill Dew Point Humidity Pressure Visibility Wind Dir Wind Speed Gust Speed Precip Events Conditions
12:54 AM 57.9 °F - 30.0 °F 35% 30.02 in 10.0 mi SSW 15.0 mph - N/A   Overcast
1:54 AM 57.9 °F - 30.9 °F 36% 30.00 in 10.0 mi SW 19.6 mph 26.5 mph N/A   Overcast
2:54 AM 57.9 °F - 33.1 °F 39% 30.00 in 10.0 mi SW 16.1 mph 27.6 mph N/A   Overcast
3:54 AM 57.0 °F - 35.1 °F 44% 29.98 in 10.0 mi SSW 15.0 mph - N/A   Overcast
4:54 AM 57.0 °F - 36.0 °F 45% 29.96 in 10.0 mi SSW 16.1 mph 25.3 mph N/A   Overcast
5:54 AM 57.0 °F - 37.9 °F 49% 29.98 in 10.0 mi SSW 21.9 mph 29.9 mph 0.00 in   Overcast
6:03 AM 57.0 °F - 37.9 °F 49% 29.98 in 10.0 mi SW 20.7 mph 28.8 mph N/A   Overcast
6:16 AM 55.0 °F - 39.9 °F 57% 29.97 in 10.0 mi SW 20.7 mph 28.8 mph 0.00 in Rain Light Rain
6:51 AM 53.6 °F - 42.8 °F 67% 29.97 in 10.0 mi SW 19.6 mph 27.6 mph 0.00 in   Overcast
6:54 AM 53.1 °F - 44.1 °F 71% 29.97 in 10.0 mi SSW 17.3 mph 25.3 mph 0.00 in   Overcast
7:19 AM 52.0 °F - 46.0 °F 80% 29.97 in 10.0 mi SSW 16.1 mph 26.5 mph 0.00 in   Overcast
7:33 AM 52.0 °F - 46.9 °F 83% 29.96 in 10.0 mi SSW 21.9 mph 29.9 mph 0.00 in   Overcast
7:54 AM 51.1 °F - 46.9 °F 86% 29.97 in 10.0 mi SSW 16.1 mph 25.3 mph 0.00 in   Overcast
8:41 AM 50.0 °F - 46.9 °F 89% 29.98 in 2.5 mi SSW 17.3 mph 24.2 mph 0.00 in Rain Light Rain
8:52 AM 50.0 °F - 46.4 °F 87% 29.97 in 5.0 mi SSW 15.0 mph - 0.00 in Rain Light Rain
8:54 AM 50.0 °F - 46.9 °F 89% 29.97 in 5.0 mi SSW 16.1 mph - 0.00 in Rain Light Rain
9:24 AM 50.0 °F - 46.9 °F 89% 29.97 in 2.5 mi SSW 15.0 mph - 0.01 in Rain Light Rain
9:49 AM 50.0 °F - 46.4 °F 87% 29.96 in 9.0 mi SSW 16.1 mph - 0.01 in   Overcast
9:54 AM 50.0 °F - 46.9 °F 89% 29.96 in 10.0 mi SSW 15.0 mph - 0.01 in Rain Light Rain
10:32 AM 50.0 °F - 46.9 °F 89% 29.95 in 6.0 mi SW 15.0 mph 23.0 mph 0.01 in Rain Light Rain
10:54 AM 50.0 °F - 48.0 °F 93% 29.97 in 8.0 mi SSW 15.0 mph - 0.01 in Rain Light Rain
11:54 AM 51.1 °F - 48.0 °F 89% 29.96 in 5.0 mi SSW 15.0 mph - 0.03 in Rain Light Rain
12:36 PM 51.1 °F - 48.9 °F 92% 29.95 in 2.5 mi SW 15.0 mph - 0.02 in Rain Light Rain
12:54 PM 51.1 °F - 48.9 °F 92% 29.96 in 2.5 mi SW 13.8 mph 20.7 mph 0.02 in Rain Light Rain
1:54 PM 52.0 °F - 50.0 °F 93% 29.95 in 2.5 mi WSW 16.1 mph - 0.03 in Rain Rain
1:56 PM 52.0 °F - 50.0 °F 93% 29.95 in 1.8 mi WSW 15.0 mph - 0.00 in Rain Rain
2:10 PM 52.0 °F - 50.0 °F 93% 29.95 in 2.5 mi WSW 12.7 mph 24.2 mph 0.01 in Rain Light Rain
2:13 PM 52.0 °F - 50.0 °F 93% 29.95 in 4.0 mi SW 15.0 mph 24.2 mph 0.02 in Rain Light Rain
2:29 PM 51.1 °F - 46.9 °F 86% 29.95 in 10.0 mi WSW 13.8 mph - 0.02 in   Overcast
2:54 PM 50.0 °F - 46.9 °F 89% 29.97 in 10.0 mi WSW 15.0 mph - 0.02 in   Mostly Cloudy
3:13 PM 50.0 °F - 46.9 °F 89% 29.96 in 10.0 mi SW 13.8 mph - N/A   Mostly Cloudy
3:39 PM 50.0 °F - 46.0 °F 86% 29.96 in 10.0 mi WSW 13.8 mph - N/A   Scattered Clouds
3:54 PM 50.0 °F - 45.0 °F 83% 29.98 in 10.0 mi WSW 13.8 mph - N/A   Scattered Clouds
4:20 PM 48.9 °F - 43.0 °F 80% 29.98 in 10.0 mi WSW 13.8 mph - N/A   Mostly Cloudy
4:54 PM 48.9 °F - 42.1 °F 77% 29.99 in 10.0 mi West 10.4 mph - N/A   Overcast
5:40 PM 46.9 °F - 41.0 °F 80% 30.00 in 10.0 mi West 11.5 mph - N/A   Scattered Clouds
5:54 PM 46.9 °F - 39.9 °F 77% 30.01 in 10.0 mi West 12.7 mph - N/A   Clear
6:54 PM 46.0 °F 41.4 °F 39.0 °F 76% 30.04 in 10.0 mi West 9.2 mph - N/A   Clear
7:54 PM 44.1 °F 39.0 °F 37.9 °F 79% 30.06 in 10.0 mi WSW 9.2 mph - N/A   Clear
8:54 PM 43.0 °F 38.2 °F 37.0 °F 80% 30.08 in 10.0 mi WSW 8.1 mph - N/A   Clear
9:54 PM 42.1 °F 36.6 °F 37.0 °F 82% 30.10 in 10.0 mi SW 9.2 mph - N/A   Clear
10:54 PM 41.0 °F 36.4 °F 36.0 °F 82% 30.11 in 10.0 mi SW 6.9 mph - N/A   Clear
11:54 PM 39.9 °F 34.5 °F 36.0 °F 86% 30.11 in 10.0 mi SSW 8.1 mph - N/A   Clear